| time (UTC) | temp C | wind direction | speed KPH | gust KPH | rain 1hr cm | rain 24hr cm | rain mn cm | humidity % | barometer mb |
| 20260506201537 | 28 | 356 | 3.2 | 11.3 | 0.00 | 0.00 | 0.00 | 62 | 1009.8 |
| 20260506201036 | 28 | 56 | 1.6 | 11.3 | 0.00 | 0.00 | 0.00 | 62 | 1009.9 |
| 20260506200535 | 28 | 36 | 3.2 | 9.7 | 0.00 | 0.00 | 0.00 | 63 | 1010.0 |
| 20260506200035 | 28 | 56 | 1.6 | 6.4 | 0.00 | 0.00 | 0.00 | 62 | 1010.1 |
| 20260506195532 | 27 | 38 | 1.6 | 8.0 | 0.00 | 0.00 | 0.00 | 62 | 1010.1 |
| 20260506195031 | 27 | 52 | 1.6 | 8.0 | 0.00 | 0.00 | 0.00 | 61 | 1010.1 |
| 20260506194535 | 27 | 324 | 0.0 | 8.0 | 0.00 | 0.00 | 0.00 | 64 | 1010.2 |
| 20260506194030 | 27 | 89 | 1.6 | 8.0 | 0.00 | 0.00 | 0.00 | 62 | 1010.3 |
| 20260506193529 | 27 | 75 | 0.0 | 9.7 | 0.00 | 0.00 | 0.00 | 61 | 1010.3 |
| 20260506193028 | 26 | 31 | 0.0 | 9.7 | 0.00 | 0.00 | 0.00 | 61 | 1010.3 |
| 20260506192527 | 26 | 36 | 0.0 | 6.4 | 0.00 | 0.00 | 0.00 | 61 | 1010.4 |
| 20260506192028 | 26 | 36 | 0.0 | 8.0 | 0.00 | 0.00 | 0.00 | 61 | 1010.5 |
| 20260506191527 | 26 | 65 | 1.6 | 9.7 | 0.00 | 0.00 | 0.00 | 62 | 1010.6 |
| 20260506191026 | 26 | 41 | 0.0 | 9.7 | 0.00 | 0.00 | 0.00 | 62 | 1010.7 |
| 20260506190526 | 26 | 41 | 1.6 | 6.4 | 0.00 | 0.00 | 0.00 | 62 | 1010.8 |
| 20260506190025 | 26 | 22 | 0.0 | 6.4 | 0.00 | 0.00 | 0.00 | 62 | 1010.7 |
| 20260506185525 | 26 | 53 | 0.0 | 6.4 | 0.00 | 0.00 | 0.00 | 61 | 1010.7 |
| 20260506185030 | 26 | 99 | 0.0 | 4.8 | 0.00 | 0.00 | 0.00 | 61 | 1010.8 |
| 20260506184528 | 26 | 51 | 0.0 | 9.7 | 0.00 | 0.00 | 0.00 | 62 | 1010.8 |
| 20260506184027 | 26 | 72 | 0.0 | 9.7 | 0.00 | 0.00 | 0.00 | 61 | 1010.8 |
| 20260506183527 | 26 | 79 | 0.0 | 8.0 | 0.00 | 0.00 | 0.00 | 61 | 1010.8 |
| 20260506183026 | 26 | 73 | 1.6 | 9.7 | 0.00 | 0.00 | 0.00 | 60 | 1010.7 |
| 20260506182522 | 26 | 93 | 3.2 | 9.7 | 0.00 | 0.00 | 0.00 | 60 | 1010.9 |
| 20260506182026 | 26 | 70 | 1.6 | 11.3 | 0.00 | 0.00 | 0.00 | 59 | 1010.9 |
| 20260506181522 | 26 | 68 | 1.6 | 11.3 | 0.00 | 0.00 | 0.00 | 60 | 1010.9 |
| 20260506181020 | 25 | 85 | 1.6 | 9.7 | 0.00 | 0.00 | 0.00 | 58 | 1010.9 |
| 20260506180519 | 25 | 82 | 0.0 | 6.4 | 0.00 | 0.00 | 0.00 | 59 | 1010.9 |
| 20260506180018 | 25 | 100 | 0.0 | 6.4 | 0.00 | 0.00 | 0.00 | 60 | 1011.0 |
| 20260506175521 | 25 | 77 | 1.6 | 6.4 | 0.00 | 0.00 | 0.00 | 61 | 1011.1 |
| 20260506175021 | 24 | 77 | 0.0 | 3.2 | 0.00 | 0.00 | 0.00 | 61 | 1011.3 |
| 20260506174518 | 24 | 72 | 0.0 | 3.2 | 0.00 | 0.00 | 0.00 | 60 | 1011.5 |
| 20260506174017 | 24 | 101 | 0.0 | 4.8 | 0.00 | 0.00 | 0.00 | 60 | 1011.5 |
| 20260506173519 | 25 | 119 | 0.0 | 6.4 | 0.00 | 0.00 | 0.00 | 60 | 1011.4 |
| 20260506173021 | 25 | 104 | 0.0 | 6.4 | 0.00 | 0.00 | 0.00 | 60 | 1011.4 |
| 20260506172515 | 25 | 60 | 0.0 | 4.8 | 0.00 | 0.00 | 0.00 | 60 | 1011.4 |
| 20260506172015 | 25 | 91 | 0.0 | 4.8 | 0.00 | 0.00 | 0.00 | 59 | 1011.3 |
| 20260506171515 | 25 | 79 | 0.0 | 6.4 | 0.00 | 0.00 | 0.00 | 59 | 1011.3 |
| 20260506171014 | 25 | 52 | 0.0 | 6.4 | 0.00 | 0.00 | 0.00 | 59 | 1011.2 |
| 20260506170514 | 25 | 68 | 0.0 | 4.8 | 0.00 | 0.00 | 0.00 | 59 | 1011.2 |
| 20260506170015 | 25 | 82 | 0.0 | 4.8 | 0.00 | 0.00 | 0.00 | 59 | 1011.2 |
| 20260506165512 | 25 | 75 | 0.0 | 4.8 | 0.00 | 0.00 | 0.00 | 59 | 1011.1 |
| 20260506165014 | 25 | 65 | 1.6 | 4.8 | 0.00 | 0.00 | 0.00 | 59 | 1011.1 |
| 20260506164515 | 25 | 84 | 0.0 | 4.8 | 0.00 | 0.00 | 0.00 | 60 | 1011.0 |
| 20260506164012 | 25 | 76 | 0.0 | 4.8 | 0.00 | 0.00 | 0.00 | 60 | 1010.9 |
| 20260506163511 | 25 | 47 | 0.0 | 4.8 | 0.00 | 0.00 | 0.00 | 61 | 1011.0 |
| 20260506163012 | 25 | 72 | 0.0 | 4.8 | 0.00 | 0.00 | 0.00 | 61 | 1011.0 |
| 20260506162508 | 25 | 79 | 0.0 | 4.8 | 0.00 | 0.00 | 0.00 | 61 | 1010.9 |
| 20260506162008 | 24 | 84 | 0.0 | 3.2 | 0.00 | 0.00 | 0.00 | 60 | 1010.8 |
| 20260506161508 | 25 | 91 | 0.0 | 1.6 | 0.00 | 0.00 | 0.00 | 61 | 1010.8 |
| 20260506161007 | 25 | 72 | 0.0 | 4.8 | 0.00 | 0.00 | 0.00 | 61 | 1010.7 |
| 20260506160509 | 25 | 68 | 0.0 | 4.8 | 0.00 | 0.00 | 0.00 | 60 | 1010.6 |
| 20260506160007 | 25 | 51 | 0.0 | 3.2 | 0.00 | 0.00 | 0.00 | 60 | 1010.4 |
| 20260506155504 | 25 | 94 | 0.0 | 0.0 | 0.00 | 0.00 | 0.00 | 60 | 1010.3 |
| 20260506155004 | 25 | 93 | 0.0 | 1.6 | 0.00 | 0.00 | 0.00 | 60 | 1010.2 |
| 20260506154514 | 25 | 51 | 0.0 | 3.2 | 0.00 | 0.00 | 0.00 | 60 | 1010.3 |
| 20260506154004 | 25 | 53 | 0.0 | 3.2 | 0.00 | 0.00 | 0.00 | 60 | 1010.3 |
| 20260506153504 | 25 | 69 | 0.0 | 1.6 | 0.00 | 0.00 | 0.00 | 60 | 1010.2 |
| 20260506153002 | 25 | 72 | 0.0 | 3.2 | 0.00 | 0.00 | 0.00 | 60 | 1010.2 |
| 20260506152501 | 25 | 46 | 0.0 | 3.2 | 0.00 | 0.00 | 0.00 | 60 | 1010.2 |
| 20260506152001 | 25 | 85 | 0.0 | 1.6 | 0.00 | 0.00 | 0.00 | 59 | 1010.2 |
| 20260506151502 | 25 | 86 | 0.0 | 1.6 | 0.00 | 0.00 | 0.00 | 59 | 1010.2 |
| 20260506151100 | 25 | 94 | 0.0 | 1.6 | 0.00 | 0.00 | 0.00 | 60 | 1010.2 |
| 20260506150559 | 25 | 117 | 0.0 | 0.0 | 0.00 | 0.00 | 0.00 | 59 | 1010.2 |
| 20260506150104 | 25 | 117 | 0.0 | 0.0 | 0.00 | 0.00 | 0.00 | 58 | 1010.1 |
| 20260506145558 | 25 | 117 | 0.0 | 0.0 | 0.00 | 0.00 | 0.00 | 58 | 1010.0 |
| 20260506145057 | 25 | 117 | 0.0 | 0.0 | 0.00 | 0.00 | 0.00 | 58 | 1010.0 |
| 20260506144557 | 25 | 117 | 0.0 | 1.6 | 0.00 | 0.00 | 0.00 | 58 | 1009.9 |
| 20260506144057 | 25 | 117 | 0.0 | 1.6 | 0.00 | 0.00 | 0.00 | 59 | 1009.9 |
| 20260506143555 | 24 | 117 | 0.0 | 1.6 | 0.00 | 0.00 | 0.00 | 59 | 1009.7 |
| 20260506143055 | 24 | 118 | 0.0 | 3.2 | 0.00 | 0.00 | 0.00 | 59 | 1009.7 |
| 20260506142553 | 24 | 144 | 0.0 | 3.2 | 0.00 | 0.00 | 0.00 | 59 | 1009.6 |
| 20260506142052 | 24 | 138 | 0.0 | 4.8 | 0.00 | 0.00 | 0.00 | 59 | 1009.6 |
| 20260506141552 | 24 | 167 | 1.6 | 4.8 | 0.00 | 0.00 | 0.00 | 59 | 1009.5 |
| 20260506141052 | 24 | 139 | 0.0 | 1.6 | 0.00 | 0.00 | 0.00 | 59 | 1009.4 |
| 20260506140554 | 24 | 148 | 0.0 | 4.8 | 0.00 | 0.00 | 0.00 | 59 | 1009.3 |
| 20260506140051 | 24 | 124 | 0.0 | 4.8 | 0.00 | 0.00 | 0.00 | 59 | 1009.2 |
| 20260506135550 | 24 | 147 | 0.0 | 4.8 | 0.00 | 0.00 | 0.00 | 60 | 1009.1 |
| 20260506135049 | 24 | 224 | 0.0 | 6.4 | 0.00 | 0.00 | 0.00 | 60 | 1009.0 |
| 20260506134549 | 23 | 140 | 1.6 | 6.4 | 0.00 | 0.00 | 0.00 | 60 | 1008.9 |
| 20260506134048 | 23 | 155 | 0.0 | 6.4 | 0.00 | 0.00 | 0.00 | 60 | 1008.9 |
| 20260506133548 | 23 | 163 | 0.0 | 6.4 | 0.00 | 0.00 | 0.00 | 60 | 1008.8 |
| 20260506133046 | 23 | 166 | 0.0 | 4.8 | 0.00 | 0.00 | 0.00 | 60 | 1008.7 |
| 20260506132544 | 23 | 124 | 0.0 | 6.4 | 0.00 | 0.00 | 0.00 | 61 | 1008.7 |
| 20260506132045 | 23 | 131 | 1.6 | 4.8 | 0.00 | 0.00 | 0.00 | 61 | 1008.6 |
| 20260506131557 | 23 | 113 | 0.0 | 4.8 | 0.00 | 0.00 | 0.00 | 61 | 1008.6 |
| 20260506131043 | 23 | 109 | 0.0 | 6.4 | 0.00 | 0.00 | 0.00 | 61 | 1008.6 |
| 20260506130544 | 23 | 129 | 0.0 | 3.2 | 0.00 | 0.00 | 0.00 | 61 | 1008.5 |
| 20260506130051 | 23 | 128 | 0.0 | 1.6 | 0.00 | 0.00 | 0.00 | 61 | 1008.5 |
| 20260506125542 | 23 | 136 | 0.0 | 1.6 | 0.00 | 0.00 | 0.00 | 61 | 1008.5 |
| 20260506125043 | 23 | 119 | 0.0 | 1.6 | 0.00 | 0.00 | 0.00 | 61 | 1008.5 |
| 20260506124542 | 23 | 145 | 0.0 | 1.6 | 0.00 | 0.00 | 0.00 | 61 | 1008.4 |
| 20260506124041 | 23 | 127 | 0.0 | 0.0 | 0.00 | 0.00 | 0.00 | 61 | 1008.3 |
| 20260506123541 | 23 | 124 | 0.0 | 0.0 | 0.00 | 0.00 | 0.00 | 62 | 1008.3 |
| 20260506123041 | 23 | 124 | 0.0 | 0.0 | 0.00 | 0.00 | 0.00 | 62 | 1008.3 |
| 20260506122540 | 23 | 124 | 0.0 | 0.0 | 0.00 | 0.00 | 0.00 | 62 | 1008.2 |
| 20260506122039 | 23 | 117 | 0.0 | 0.0 | 0.00 | 0.00 | 0.00 | 62 | 1008.2 |
| 20260506121539 | 23 | 121 | 0.0 | 0.0 | 0.00 | 0.00 | 0.00 | 62 | 1008.1 |
| 20260506121039 | 23 | 108 | 0.0 | 4.8 | 0.00 | 0.00 | 0.00 | 62 | 1008.1 |
| 20260506120543 | 23 | 116 | 0.0 | 4.8 | 0.00 | 0.00 | 0.00 | 62 | 1008.1 |
| 20260506120040 | 23 | 115 | 0.0 | 1.6 | 0.00 | 0.00 | 0.00 | 62 | 1008.1 |
| 20260506115539 | 23 | 111 | 0.0 | 3.2 | 0.00 | 0.00 | 0.00 | 63 | 1008.1 |
| 20260506115037 | 23 | 117 | 0.0 | 3.2 | 0.00 | 0.00 | 0.00 | 63 | 1008.1 |
| 20260506114538 | 23 | 118 | 0.0 | 1.6 | 0.00 | 0.00 | 0.00 | 63 | 1008.1 |
| 20260506114039 | 23 | 119 | 0.0 | 3.2 | 0.00 | 0.00 | 0.00 | 63 | 1008.2 |
| 20260506113538 | 23 | 118 | 0.0 | 3.2 | 0.00 | 0.00 | 0.00 | 63 | 1008.1 |
| 20260506113037 | 23 | 115 | 0.0 | 1.6 | 0.00 | 0.00 | 0.00 | 63 | 1008.1 |
| 20260506112538 | 23 | 115 | 0.0 | 4.8 | 0.00 | 0.00 | 0.00 | 63 | 1008.0 |
| 20260506112037 | 23 | 160 | 1.6 | 4.8 | 0.00 | 0.00 | 0.00 | 63 | 1008.0 |
| 20260506111536 | 23 | 151 | 0.0 | 6.4 | 0.00 | 0.00 | 0.00 | 63 | 1008.1 |
| 20260506111037 | 23 | 127 | 1.6 | 6.4 | 0.00 | 0.00 | 0.00 | 63 | 1008.1 |
| 20260506110538 | 23 | 105 | 1.6 | 8.0 | 0.00 | 0.00 | 0.00 | 63 | 1008.1 |
| 20260506110036 | 23 | 157 | 1.6 | 8.0 | 0.00 | 0.00 | 0.00 | 63 | 1008.1 |
| 20260506105535 | 23 | 120 | 0.0 | 9.7 | 0.00 | 0.00 | 0.00 | 63 | 1008.2 |
| 20260506105035 | 23 | 128 | 3.2 | 9.7 | 0.00 | 0.00 | 0.00 | 63 | 1008.2 |
| 20260506104535 | 23 | 113 | 0.0 | 9.7 | 0.00 | 0.00 | 0.00 | 63 | 1008.2 |
| 20260506104034 | 23 | 138 | 1.6 | 9.7 | 0.00 | 0.00 | 0.00 | 62 | 1008.1 |
| 20260506103534 | 23 | 146 | 1.6 | 8.0 | 0.00 | 0.00 | 0.00 | 62 | 1008.0 |
| 20260506103039 | 23 | 136 | 3.2 | 12.9 | 0.00 | 0.00 | 0.00 | 62 | 1008.0 |
| 20260506102533 | 23 | 119 | 4.8 | 12.9 | 0.00 | 0.00 | 0.00 | 62 | 1008.0 |
| 20260506102034 | 23 | 119 | 4.8 | 11.3 | 0.00 | 0.00 | 0.00 | 62 | 1008.1 |
| 20260506101533 | 23 | 150 | 4.8 | 16.1 | 0.00 | 0.00 | 0.00 | 62 | 1008.1 |
| 20260506101032 | 23 | 111 | 4.8 | 16.1 | 0.00 | 0.00 | 0.00 | 62 | 1008.0 |
| 20260506100534 | 23 | 125 | 4.8 | 11.3 | 0.00 | 0.00 | 0.00 | 63 | 1008.0 |
| 20260506100036 | 23 | 109 | 1.6 | 11.3 | 0.00 | 0.00 | 0.00 | 62 | 1008.0 |
| 20260506095531 | 23 | 160 | 4.8 | 11.3 | 0.00 | 0.00 | 0.00 | 62 | 1008.1 |
| 20260506095031 | 23 | 106 | 0.0 | 11.3 | 0.00 | 0.00 | 0.00 | 63 | 1008.0 |
| 20260506094540 | 23 | 100 | 4.8 | 11.3 | 0.00 | 0.00 | 0.00 | 63 | 1008.1 |
| 20260506094033 | 23 | 127 | 6.4 | 11.3 | 0.00 | 0.00 | 0.00 | 63 | 1008.0 |
| 20260506093530 | 23 | 128 | 3.2 | 9.7 | 0.00 | 0.00 | 0.00 | 63 | 1008.0 |
| 20260506093035 | 23 | 122 | 1.6 | 11.3 | 0.00 | 0.00 | 0.00 | 63 | 1007.9 |
| 20260506092529 | 23 | 142 | 3.2 | 11.3 | 0.00 | 0.00 | 0.00 | 63 | 1007.9 |
| 20260506092029 | 23 | 149 | 4.8 | 11.3 | 0.00 | 0.00 | 0.00 | 63 | 1007.8 |
| 20260506091531 | 23 | 98 | 1.6 | 14.5 | 0.00 | 0.00 | 0.00 | 63 | 1007.9 |
| 20260506091032 | 24 | 143 | 4.8 | 14.5 | 0.00 | 0.00 | 0.00 | 63 | 1007.9 |
| 20260506090528 | 24 | 133 | 3.2 | 9.7 | 0.00 | 0.00 | 0.00 | 63 | 1007.9 |
| 20260506090028 | 24 | 148 | 3.2 | 12.9 | 0.00 | 0.00 | 0.00 | 62 | 1007.9 |
| 20260506085528 | 24 | 147 | 4.8 | 12.9 | 0.00 | 0.00 | 0.00 | 62 | 1007.9 |
| 20260506085027 | 24 | 145 | 3.2 | 11.3 | 0.00 | 0.00 | 0.00 | 62 | 1007.9 |
| 20260506084526 | 24 | 102 | 3.2 | 16.1 | 0.00 | 0.00 | 0.00 | 62 | 1007.8 |
| 20260506084028 | 24 | 115 | 6.4 | 16.1 | 0.00 | 0.00 | 0.00 | 62 | 1007.8 |
| 20260506083527 | 24 | 108 | 4.8 | 16.1 | 0.00 | 0.00 | 0.00 | 62 | 1007.8 |
| 20260506083027 | 24 | 193 | 1.6 | 16.1 | 0.00 | 0.00 | 0.00 | 62 | 1007.8 |
| 20260506082530 | 24 | 120 | 3.2 | 14.5 | 0.00 | 0.00 | 0.00 | 62 | 1007.8 |
| 20260506082027 | 24 | 101 | 4.8 | 12.9 | 0.00 | 0.00 | 0.00 | 62 | 1007.9 |
| 20260506081530 | 24 | 126 | 4.8 | 12.9 | 0.00 | 0.00 | 0.00 | 62 | 1007.9 |
| 20260506081025 | 24 | 141 | 1.6 | 11.3 | 0.00 | 0.00 | 0.00 | 63 | 1008.0 |
| 20260506080525 | 24 | 134 | 1.6 | 11.3 | 0.00 | 0.00 | 0.00 | 62 | 1008.0 |
| 20260506073522 | 24 | 106 | 0.0 | 6.4 | 0.00 | 0.00 | 0.00 | 63 | 1008.1 |
| 20260506073022 | 24 | 136 | 1.6 | 8.0 | 0.00 | 0.00 | 0.00 | 63 | 1008.1 |
| 20260506072522 | 24 | 129 | 0.0 | 11.3 | 0.00 | 0.00 | 0.00 | 63 | 1008.1 |
| 20260506072021 | 24 | 115 | 3.2 | 12.9 | 0.00 | 0.00 | 0.00 | 63 | 1008.0 |
| 20260506071524 | 24 | 112 | 4.8 | 12.9 | 0.00 | 0.00 | 0.00 | 63 | 1008.1 |
| 20260506071021 | 24 | 118 | 1.6 | 12.9 | 0.00 | 0.00 | 0.00 | 63 | 1008.1 |
| 20260506070521 | 24 | 118 | 6.4 | 12.9 | 0.00 | 0.00 | 0.00 | 63 | 1008.1 |
| 20260506062019 | 24 | 126 | 0.0 | 9.7 | 0.00 | 0.00 | 0.00 | 63 | 1008.1 |
| 20260506061519 | 24 | 130 | 1.6 | 8.0 | 0.00 | 0.00 | 0.00 | 63 | 1008.1 |
| 20260506061018 | 24 | 92 | 0.0 | 9.7 | 0.00 | 0.00 | 0.00 | 64 | 1008.1 |
| 20260506060522 | 24 | 123 | 1.6 | 9.7 | 0.00 | 0.00 | 0.00 | 64 | 1008.2 |
| 20260506051015 | 25 | 136 | 4.8 | 12.9 | 0.00 | 0.00 | 0.00 | 67 | 1008.0 |
| 20260506050510 | 25 | 88 | 1.6 | 9.7 | 0.00 | 0.00 | 0.00 | 68 | 1007.9 |
| 20260506045012 | 25 | 100 | 3.2 | 12.9 | 0.00 | 0.00 | 0.00 | 68 | 1007.9 |
| 20260506044508 | 25 | 111 | 4.8 | 11.3 | 0.00 | 0.00 | 0.00 | 69 | 1007.9 |
| 20260506044010 | 25 | 177 | 3.2 | 9.7 | 0.00 | 0.00 | 0.00 | 69 | 1008.0 |
| 20260506043508 | 25 | 103 | 1.6 | 9.7 | 0.00 | 0.00 | 0.00 | 69 | 1008.0 |
| 20260506043008 | 25 | 159 | 3.2 | 9.7 | 0.00 | 0.00 | 0.00 | 69 | 1008.0 |
| 20260506042508 | 25 | 139 | 1.6 | 11.3 | 0.00 | 0.00 | 0.00 | 70 | 1007.9 |
| 20260506042009 | 25 | 129 | 3.2 | 12.9 | 0.00 | 0.00 | 0.00 | 70 | 1007.8 |
| 20260506041513 | 26 | 124 | 3.2 | 11.3 | 0.00 | 0.00 | 0.00 | 70 | 1007.7 |
| 20260506041006 | 26 | 131 | 1.6 | 8.0 | 0.00 | 0.00 | 0.00 | 70 | 1007.6 |
| 20260506040507 | 26 | 168 | 1.6 | 6.4 | 0.00 | 0.00 | 0.00 | 70 | 1007.6 |
| 20260506040009 | 26 | 150 | 1.6 | 14.5 | 0.00 | 0.00 | 0.00 | 69 | 1007.6 |
| 20260506035511 | 26 | 72 | 3.2 | 14.5 | 0.00 | 0.00 | 0.00 | 69 | 1007.6 |
| 20260506035007 | 26 | 104 | 1.6 | 8.0 | 0.00 | 0.00 | 0.00 | 69 | 1007.5 |
| 20260506034510 | 26 | 100 | 1.6 | 9.7 | 0.00 | 0.00 | 0.00 | 69 | 1007.3 |
| 20260506034006 | 26 | 101 | 1.6 | 9.7 | 0.00 | 0.00 | 0.00 | 68 | 1007.2 |
| 20260506033505 | 26 | 112 | 0.0 | 6.4 | 0.00 | 0.00 | 0.00 | 68 | 1007.2 |
| 20260506033005 | 26 | 123 | 0.0 | 8.0 | 0.00 | 0.00 | 0.00 | 68 | 1007.1 |
| 20260506032504 | 26 | 92 | 1.6 | 9.7 | 0.00 | 0.00 | 0.00 | 67 | 1007.0 |
| 20260506032004 | 26 | 144 | 1.6 | 11.3 | 0.00 | 0.00 | 0.00 | 67 | 1007.0 |
| 20260506031504 | 26 | 97 | 1.6 | 11.3 | 0.00 | 0.00 | 0.00 | 67 | 1007.0 |
| 20260506031004 | 26 | 97 | 1.6 | 8.0 | 0.00 | 0.00 | 0.00 | 67 | 1006.8 |
| 20260506030503 | 26 | 105 | 1.6 | 8.0 | 0.00 | 0.00 | 0.00 | 67 | 1006.7 |
| 20260506030009 | 26 | 128 | 0.0 | 9.7 | 0.00 | 0.00 | 0.00 | 68 | 1006.8 |
| 20260506025503 | 26 | 107 | 1.6 | 9.7 | 0.00 | 0.00 | 0.00 | 68 | 1006.7 |
| 20260506025003 | 26 | 91 | 0.0 | 1.6 | 0.00 | 0.00 | 0.00 | 69 | 1006.7 |
| 20260506024510 | 26 | 89 | 0.0 | 0.0 | 0.00 | 0.00 | 0.00 | 69 | 1006.6 |
| 20260506024003 | 26 | 89 | 0.0 | 0.0 | 0.00 | 0.00 | 0.00 | 69 | 1006.5 |
| 20260506023503 | 26 | 89 | 0.0 | 0.0 | 0.00 | 0.00 | 0.00 | 69 | 1006.5 |
| 20260506023003 | 26 | 90 | 0.0 | 1.6 | 0.00 | 0.00 | 0.00 | 69 | 1006.4 |
| 20260506022502 | 26 | 96 | 0.0 | 1.6 | 0.00 | 0.00 | 0.00 | 69 | 1006.4 |
| 20260506022002 | 26 | 99 | 0.0 | 0.0 | 0.00 | 0.00 | 0.00 | 69 | 1006.4 |
| 20260506021502 | 26 | 99 | 0.0 | 1.6 | 0.00 | 0.00 | 0.00 | 69 | 1006.3 |
| 20260506021002 | 26 | 99 | 0.0 | 1.6 | 0.00 | 0.00 | 0.00 | 69 | 1006.3 |
| 20260506020501 | 26 | 98 | 0.0 | 0.0 | 0.00 | 0.00 | 0.00 | 69 | 1006.3 |
| 20260506020001 | 26 | 99 | 0.0 | 0.0 | 0.00 | 0.00 | 0.00 | 69 | 1006.1 |
| 20260506015502 | 26 | 99 | 0.0 | 0.0 | 0.00 | 0.00 | 0.00 | 69 | 1006.1 |
| 20260506015001 | 26 | 99 | 0.0 | 0.0 | 0.00 | 0.00 | 0.00 | 69 | 1005.9 |
| 20260506014501 | 26 | 99 | 0.0 | 0.0 | 0.00 | 0.00 | 0.00 | 68 | 1005.9 |
| 20260506014002 | 27 | 99 | 0.0 | 0.0 | 0.00 | 0.00 | 0.00 | 68 | 1005.9 |
| 20260506013501 | 27 | 99 | 0.0 | 0.0 | 0.00 | 0.00 | 0.00 | 68 | 1005.9 |
| 20260506013100 | 27 | 98 | 0.0 | 0.0 | 0.00 | 0.00 | 0.00 | 67 | 1005.8 |
| 20260506012600 | 27 | 99 | 0.0 | 0.0 | 0.00 | 0.00 | 0.00 | 67 | 1005.7 |
| 20260506012058 | 27 | 99 | 0.0 | 0.0 | 0.00 | 0.00 | 0.00 | 66 | 1005.6 |
| 20260506011559 | 28 | 82 | 0.0 | 1.6 | 0.00 | 0.00 | 0.00 | 66 | 1005.5 |
| 20260506011101 | 28 | 77 | 0.0 | 1.6 | 0.00 | 0.00 | 0.00 | 66 | 1005.4 |
| 20260506010600 | 28 | 88 | 0.0 | 1.6 | 0.00 | 0.00 | 0.00 | 65 | 1005.4 |
| 20260506010058 | 28 | 78 | 0.0 | 1.6 | 0.00 | 0.00 | 0.00 | 65 | 1005.3 |
| 20260506005601 | 28 | 84 | 0.0 | 3.2 | 0.00 | 0.00 | 0.00 | 65 | 1005.3 |
| 20260506005057 | 28 | 62 | 0.0 | 3.2 | 0.00 | 0.00 | 0.00 | 64 | 1005.2 |
| 20260506004600 | 29 | 58 | 0.0 | 4.8 | 0.00 | 0.00 | 0.00 | 64 | 1005.2 |
| 20260506004057 | 29 | 67 | 0.0 | 4.8 | 0.00 | 0.00 | 0.00 | 63 | 1005.1 |
| 20260506003557 | 29 | 79 | 0.0 | 3.2 | 0.00 | 0.00 | 0.00 | 63 | 1005.1 |
| 20260506003058 | 30 | 75 | 0.0 | 1.6 | 0.00 | 0.00 | 0.00 | 62 | 1005.0 |
| 20260506002556 | 30 | 89 | 0.0 | 1.6 | 0.00 | 0.00 | 0.00 | 61 | 1005.0 |
| 20260506002056 | 30 | 92 | 0.0 | 1.6 | 0.00 | 0.00 | 0.00 | 60 | 1005.0 |
| 20260506001607 | 30 | 85 | 0.0 | 1.6 | 0.00 | 0.00 | 0.00 | 60 | 1005.0 |
| 20260506001056 | 30 | 46 | 0.0 | 1.6 | 0.00 | 0.00 | 0.00 | 60 | 1004.9 |
| 20260506000556 | 30 | 91 | 0.0 | 4.8 | 0.00 | 0.00 | 0.00 | 60 | 1004.9 |
| 20260506000057 | 30 | 94 | 0.0 | 4.8 | 0.00 | 0.00 | 0.00 | 60 | 1004.9 |
| 20260505235555 | 31 | 101 | 0.0 | 3.2 | 0.00 | 0.00 | 0.00 | 59 | 1004.9 |
| 20260505235056 | 31 | 83 | 0.0 | 6.4 | 0.00 | 0.00 | 0.00 | 58 | 1004.9 |
| 20260505234559 | 31 | 109 | 0.0 | 6.4 | 0.00 | 0.00 | 0.00 | 58 | 1004.9 |
| 20260505234058 | 31 | 57 | 1.6 | 8.0 | 0.00 | 0.00 | 0.00 | 57 | 1005.0 |
| 20260505233555 | 31 | 128 | 1.6 | 8.0 | 0.00 | 0.00 | 0.00 | 55 | 1004.9 |
| 20260505233055 | 31 | 75 | 1.6 | 6.4 | 0.00 | 0.00 | 0.00 | 55 | 1004.9 |
| 20260505232557 | 31 | 104 | 0.0 | 6.4 | 0.00 | 0.00 | 0.00 | 55 | 1004.8 |
| 20260505232054 | 31 | 110 | 0.0 | 8.0 | 0.00 | 0.00 | 0.00 | 54 | 1004.9 |
| 20260505231602 | 32 | 115 | 3.2 | 8.0 | 0.00 | 0.00 | 0.00 | 55 | 1004.9 |
| 20260505231059 | 32 | 137 | 1.6 | 8.0 | 0.00 | 0.00 | 0.00 | 54 | 1004.9 |
| 20260505230552 | 32 | 86 | 1.6 | 9.7 | 0.00 | 0.00 | 0.00 | 56 | 1005.0 |
| 20260505230059 | 31 | 106 | 3.2 | 9.7 | 0.00 | 0.00 | 0.00 | 55 | 1005.0 |
| 20260505225554 | 31 | 137 | 1.6 | 6.4 | 0.00 | 0.00 | 0.00 | 56 | 1004.8 |
| 20260505225055 | 31 | 108 | 1.6 | 8.0 | 0.00 | 0.00 | 0.00 | 56 | 1004.8 |
| 20260505224553 | 31 | 152 | 3.2 | 8.0 | 0.00 | 0.00 | 0.00 | 55 | 1004.9 |
| 20260505224051 | 32 | 141 | 3.2 | 8.0 | 0.00 | 0.00 | 0.00 | 54 | 1005.0 |
| 20260505223551 | 32 | 153 | 0.0 | 8.0 | 0.00 | 0.00 | 0.00 | 54 | 1005.1 |
| 20260505223053 | 32 | 170 | 1.6 | 6.4 | 0.00 | 0.00 | 0.00 | 54 | 1005.1 |
| 20260505222549 | 32 | 155 | 0.0 | 4.8 | 0.00 | 0.00 | 0.00 | 54 | 1005.1 |
| 20260505222050 | 32 | 141 | 0.0 | 8.0 | 0.00 | 0.00 | 0.00 | 54 | 1005.0 |
| 20260505221550 | 32 | 159 | 1.6 | 8.0 | 0.00 | 0.00 | 0.00 | 54 | 1005.0 |
| 20260505221047 | 32 | 176 | 1.6 | 8.0 | 0.00 | 0.00 | 0.00 | 54 | 1005.1 |
| 20260505220547 | 32 | 155 | 3.2 | 8.0 | 0.00 | 0.00 | 0.00 | 54 | 1005.1 |
| 20260505220046 | 32 | 169 | 3.2 | 11.3 | 0.00 | 0.00 | 0.00 | 54 | 1005.2 |
| 20260505215545 | 32 | 79 | 4.8 | 11.3 | 0.00 | 0.00 | 0.00 | 55 | 1005.2 |
| 20260505215045 | 32 | 85 | 0.0 | 6.4 | 0.00 | 0.00 | 0.00 | 56 | 1005.2 |
| 20260505214543 | 31 | 137 | 1.6 | 6.4 | 0.00 | 0.00 | 0.00 | 56 | 1005.3 |
| 20260505214042 | 32 | 114 | 1.6 | 6.4 | 0.00 | 0.00 | 0.00 | 55 | 1005.5 |
| 20260505213540 | 31 | 231 | 0.0 | 14.5 | 0.00 | 0.00 | 0.00 | 55 | 1005.6 |
| 20260505213051 | 31 | 148 | 3.2 | 8.0 | 0.00 | 0.00 | 0.00 | 57 | 1005.6 |
| 20260505212540 | 31 | 87 | 0.0 | 4.8 | 0.00 | 0.00 | 0.00 | 58 | 1005.6 |
| 20260505212037 | 31 | 63 | 0.0 | 11.3 | 0.00 | 0.00 | 0.00 | 56 | 1005.8 |
| 20260505211537 | 31 | 136 | 6.4 | 11.3 | 0.00 | 0.00 | 0.00 | 55 | 1005.8 |
| 20260505211039 | 32 | 70 | 1.6 | 6.4 | 0.00 | 0.00 | 0.00 | 56 | 1005.9 |
| 20260505210533 | 31 | 229 | 1.6 | 8.0 | 0.00 | 0.00 | 0.00 | 56 | 1005.9 |
| 20260505210035 | 31 | 266 | 1.6 | 8.0 | 0.00 | 0.00 | 0.00 | 55 | 1006.0 |
| 20260505205532 | 31 | 229 | 3.2 | 8.0 | 0.00 | 0.00 | 0.00 | 55 | 1006.0 |
| 20260505205030 | 31 | 224 | 0.0 | 8.0 | 0.00 | 0.00 | 0.00 | 56 | 1006.1 |
| 20260505204531 | 31 | 184 | 0.0 | 11.3 | 0.00 | 0.00 | 0.00 | 57 | 1006.3 |
| 20260505204029 | 31 | 164 | 4.8 | 11.3 | 0.00 | 0.00 | 0.00 | 55 | 1006.2 |
| 20260505203529 | 31 | 144 | 1.6 | 9.7 | 0.00 | 0.00 | 0.00 | 54 | 1006.4 |
| 20260505203028 | 31 | 154 | 1.6 | 9.7 | 0.00 | 0.00 | 0.00 | 54 | 1006.4 |
| 20260505202527 | 30 | 42 | 0.0 | 6.4 | 0.00 | 0.00 | 0.00 | 54 | 1006.6 |
| 20260505202028 | 30 | 79 | 0.0 | 4.8 | 0.00 | 0.00 | 0.00 | 56 | 1006.6 |